WESTFORD NEEDLES, 2796

Orbit data source: Space-Track

WESTFORD NEEDLES, 2796 is space debris in LEO originally from a launch on Thu, 09 May 1963 UTC launched from the Air Force Western Test Range (AFWTR). Debris objects in space refer to the collection of defunct objects orbiting the Earth. Examples of debris include non-operational satellites, rocket bodies, and fragments generated from explosions, collisions, or faulty payload assembly.

Loading next visibility...
Identifier
2796, 1963-014AQ
Orbit
LEO
Country
Flag of USUS
Related business
Manufacturer
Unknown
Mission
Spacecraft
Bus & Motor
Unknown
Mass
Unknown
Launch date (UTC)
1963-05-09 (63 years ago)
Launch vehicle
Unknown
Launch site
Air Force Western Test Range (AFWTR)
Object type
Payload
Rocket body
Debris
Shape & HBR
Unknown shape, 0.3 m
Radar Cross Section
Medium (>0.1 m² and <1 m²)

Expand to show TLE details & history
Last TLE update: 1 day ago

TLE from 1 day ago
0 WESTFORD NEEDLES
1 02796U 63014AQ  25342.27425910  .00000308  00000-0  12186+0 0  9992
2 02796  87.2116 105.9435 0508752   9.7109 351.3161  8.68198262908480
Epoch: 2025-12-08T06:34Z
TLE epoch observation values (Epoch: 2025-12-08T06:34:55.986Z)
Latitude
0.00006°
Longitude
-70.06542°
Altitude
3,121.484 km
Speed
6.639 km/s
True Right ascension
07h 03m 46s
True Declination
0° 00' 00"
Sunlit
Object was in full shadow at epoch
Visualization orbit readout
Latitude
Unknown
Longitude
Unknown
Altitude
Unknown
Speed
Unknown
Apparent Right ascension
Unknown
Apparent Declination
Unknown
Sunlit
N/A
Visualization observer readout
Local Sidereal Time
04:25:55
Azimuth
Unknown
Elevation
Unknown
Doppler factor
Unknown
Orbital elements
Apogee altitude
4,128.055 km
Perigee altitude
3,110.799 km
Semi-major axis
9,997.564 km
Eccentricity
0.05088
Inclination
87.2116°
RAAN
105.9435°
Arg. of periapsis
9.7109°
True anomaly
350.37706°
Mean anomaly
351.3161°
Eccentric anomaly
350.8527°
Mean motion
2.17121 °/min
Orbital period
165.81 mins
BSTAR
0.12186
Loading maneuver chart data...
Computing Atmospheric mass density...

Documentation

Showing up to 5 results
|